2014 14Km 2016-10-14T07:55:59+00:00

Resultats 14Km 2014

POSICIÓ DORSAL ATLETA TEMPS
1 102 Jan Margarit Sole 01:10:47
2 196 Riki Hierro 01:11:26
3 170 Alvaro Rance Gimenez-salinas 01:13:11
4 302 Josep Rovira Dachs 01:14:07
5 142 Arnau Montiel 01:14:37
6 95 Xavi Prims Damas 01:15:50
7 113 Pau Llorens Caellas 01:16:06
8 96 Josep Roset Rojo 01:16:11
9 366 Carlos Gonfaus Pajarón 01:16:38
10 14 Josep Antoni Torres Ruz 01:17:41
11 39 Roger Camprubi Gallet 01:17:44
12 151 Lluis Corbera 01:19:23
13 168 Sergi Barcons Llorach 01:19:33
14 18 David Amblas Estrada 01:19:37
15 135 Ramon Ancho García 01:19:42
16 369 Biel Rafols Perarnau 01:21:18
17 92 Valentí Viñas Vilardebó 01:21:23
18 160 Albert Traveria Bernadet 01:22:10
19 163 Guillem Puig Reig 01:23:03
20 117 Jaume Font Virtus 01:23:11
21 49 David Rial Figols 01:23:35
22 19 Silvia Leal Augé 01:24:10
23 166 Pep Garcia Magin 01:24:28
24 172 Santi Chinchilla Cano 01:25:23
25 169 Sergi Rio Mirat 01:26:26
26 197 Jordi Mosoll 01:27:18
27 99 Àlex Rodríguez Vilella 01:27:21
28 164 Josep Ballester Vigo 01:27:28
29 93 Eric Tort Aymerich 01:28:01
30 51 Llorenç Castanyer Soler 01:28:15
31 50 Martí Castanyer Soler 01:28:20
32 16 Jordi Dorca Tarruella 01:28:44
33 167 Carlos Esteban 01:28:52
34 114 Luis Estrella Pastor 01:28:54
35 155 Sergi Grané Serrano 01:28:57
36 57 Edgar Manzano 01:30:21
37 358 Pep Serra Prat 01:30:56
38 357 Marc Aubardell Torrent 01:31:08
39 373 Marta Comas Viladrich 01:31:12
40 122 Ruben Rodriguez 01:31:25
41 66 Josep Plana Rotxes 01:31:33
42 132 Jordi Vidal Moncunill 01:32:19
43 12 Juan Luis Martin Hervilla 01:32:21
44 54 Angel Enguita Casals 01:32:36
45 127 Maria Beringues Brunet 01:32:37
46 80 Carles Boixadera Serarols 01:33:10
47 141 Carles Solà Fàbregas 01:33:23
48 158 Xavier Requena Blasco 01:33:38
49 374 Antonio Dolset Buyó 01:33:43
50 199 Jordi Rodríguez Sanchez 01:33:51
51 124 Eloi Escobet Busquets 01:34:10
52 367 Isaac Ridó Aloy 01:34:13
53 61 Javier Miguel García 01:34:15
54 104 Diego Rodriguez Soler 01:34:17
55 125 Ramon Pont Vilchez 01:34:21
56 152 David García Trullá 01:34:30
57 176 Marc Giné Sabata 01:34:32
58 97 Marc Ballarà Tort 01:34:36
59 43 Sergi Fernandez Bosch 01:34:38
60 159 Xavi Torrabadella Boixader 01:34:42
61 47 Josep Ma Suades Roges 01:34:51
62 62 Xavi Figuls Roma 01:35:37
63 71 Jordi Granell Díaz 01:35:49
64 115 Valentí Sala 01:36:09
65 17 Miquel Fernandez Martinez 01:36:12
66 79 David Sánchez Martín 01:36:16
67 149 Joan Subirana Casellas 01:36:21
68 191 Marc Rojas Saña 01:36:29
69 118 Jordi Munyoz 01:37:22
70 22 Enrique Bolon 01:37:30
71 29 Jaume Serra Pons 01:37:48
72 120 Andreu Lleonart Morell 01:38:00
73 116 Jaume Casals Ferrer 01:38:04
74 109 Sergi Betriu Méndez 01:38:27
75 186 David Hernández López 01:38:42
76 365 Jordi Vilà Xandri 01:38:48
77 48 Aitor Zumajo Esteban 01:38:52
78 31 Sabina Corral Moreno 01:39:16
79 144 Marta Belio Sanchez 01:39:40
80 143 Josep Carles Rebollo Balboa 01:39:42
81 171 Jordi Borés Molner 01:39:43
82 139 Xavi Colomé Orrit 01:40:09
83 198 Daniel Sala Tervel 01:40:50
84 362 Maximo Leal Delgado 01:40:56
85 371 Enrique Ubeda Vazquez 01:41:08
86 55 Ana Martinez Vila 01:41:13
87 76 Xavier Torrents Cervera 01:41:16
88 15 Núria Mengual Miralles 01:41:18
89 90 Cristina Rotxés Ambròs 01:41:24
90 32 Xavi Almela Martínez 01:41:28
91 98 Artur Ballarà García 01:41:31
92 140 Josep Badia Gorchs 01:41:34
93 105 Maite Rivero Mayen 01:41:44
94 126 Jordi Subirana Casellas 01:41:55
95 150 Jordi Puig Gutierrez 01:41:58
96 194 Jordi Aymerich Casas 01:42:07
97 138 Marc Fabra Ferrer 01:43:01
98 5 Jesus Oliva Chaves 01:43:04
99 107 Alvar Gomez 01:43:08
100 63 Josep Costa Rotxes 01:43:11
101 128 Maria Casals Ferrer 01:43:13
102 7 Pablo García Arcos 01:43:43
103 24 Jordi Luque Martin 01:44:10
104 11 Toni Zafra Brau 01:44:17
105 103 Jordi Biosca Sans 01:45:13
106 106 àlex Carmona Gorriz 01:45:15
107 180 Antonio Navas Pérez 01:45:25
108 195 Juli Laudes Ponza 01:45:30
109 130 Cristina Milà Navarro 01:45:35
110 87 Xavi Palahí Calopa 01:45:46
111 370 Joan Mari 01:46:03
112 165 Aida Perez Moncho 01:46:11
113 78 Victor Pintor Coca 01:46:27
114 101 Victor Margeli Cervera 01:46:32
115 85 Ivan Carol Vendrell 01:46:36
116 94 Montse Juncarol Reguant 01:46:47
117 147 Lauren Garcia Sánchez 01:46:54
118 156 Pere Casals Montero 01:47:03
119 100 Albert Pons Escoda 01:47:08
120 65 Marc Puig Tarantola 01:47:21
121 200 Joan Hontecillas Estrada 01:47:29
122 41 Roberto Rodriguez Lopez 01:48:09
123 112 Enrique Román Sánchez 01:48:29
124 33 Isabel Serantes Gomez 01:48:40
125 108 Joan Manel Masip Casado 01:48:48
126 73 Aitana Fernandez Braña 01:48:51
127 27 Francesc Gallardo Moliner 01:49:53
128 359 Jordi Carrasco Franch 01:50:01
129 74 David Salvador Marquez 01:50:21
130 111 Sergi Beltran Armengol 01:50:34
131 69 Alex Suarez Fortacin 01:50:37
132 154 Maite Romero Jimenez 01:50:41
133 375 Josep Mª Pujol Ribera 01:51:06
134 23 Carme Hernandez 01:51:14
135 2 Julian Palomo Moya 01:51:42
136 1 Josep Ramon Vilanova Romero 01:51:46
137 153 Jesús Hermosilla Màrquez 01:51:55
138 46 Jordi Cid Garcia 01:52:29
139 67 David Vilacha 01:52:57
140 185 Àngel Calsina Santasusana 01:53:15
141 58 Pere Esteban Vea 01:53:28
142 56 Marta Simon Rovira 01:53:48
143 361 Laia Gonfaus Sellés 01:53:57
144 364 Albert Gonfaus Castaño 01:53:58
145 60 Esteban Lara Prat 01:54:16
146 10 Antoni Méndez Garriga 01:54:48
147 134 Joan Jordi Garcia 01:56:17
148 86 Eduard Balboa Garcia 01:56:43
149 192 Ada Xinxó Morera 01:57:10
150 193 Santi Val Lucas 01:57:14
151 187 Queralt Lecha Borrellas 01:57:17
152 188 Josep Lecha Guixe 01:57:19
153 173 Irene Fustagueras Farré 01:57:29
154 368 Albert Pérez Monfort 01:57:30
155 189 Josep Lluís Muro Ferrer 01:57:53
156 190 Yolanda Medina Pons 01:57:54
157 42 Omar Prunera Dols 01:58:25
158 145 David Quintas Laza 01:58:34
159 44 Francesc Sansa Canellas 01:58:55
160 137 Pol Vilà Nadal 01:59:09
161 25 Matthew-thomas Slaughter 01:59:28
162 363 Alejandro Ferez Martínez 02:00:50
163 162 Isaac Bosch Higuera 02:00:59
164 360 Sergi Gallego Cazorla 02:01:08
165 174 Antoni Rojas Soler de lloveres 02:01:28
166 84 Inma Castillo 02:01:40
167 181 Eva Iglesias Coll 02:02:19
168 77 Carles Marti Salleras 02:02:26
169 110 Enric Barrios Calderer 02:02:50
170 72 Carles Caneda Mora 02:03:00
171 161 Josue Lopez Castan 02:03:34
172 131 David Tomas Serra 02:04:00
173 178 Pere Montblanch Padullés 02:04:16
174 133 Cristina López Martínez 02:05:19
175 136 Susanna Barragan 02:05:46
176 121 LLuís Molera Safont 02:05:50
177 6 Jaume Amengual Garcia 02:07:39
178 9 Víctor Galmés Oliver 02:07:42
179 123 Núria Bacardí Baldrich 02:09:00
180 179 Blanca Trenas Hinojosa 02:09:24
181 21 Meritxell Almà I Garcia 02:10:00
182 20 Andreu Soler I Núñez 02:10:04
183 64 Carlos Vidal Porti 02:11:42
184 83 Joan Borrell Martin 02:11:44
185 28 Àngels Rovira Gibert 02:11:58
186 30 Xavier Planta 02:12:11
187 129 Queralt Call Cunill 02:12:46
188 53 Montse Noguera 02:14:06
189 59 Marta Genis Ricart 02:14:10
190 52 Veronica Carballo Estevez 02:14:42
191 82 Soraya Gil Pérez 02:36:06
192 81 Mireia Gil Pérez 02:36:11
193 68 Francesc Tomas Serra 02:17:04
194 40 Virginie Bruzzi 02:17:31
195 91 Xesca Ribot Vila 02:23:04
196 148 Andres Alcantara Soteras 02:24:40
197 184 Ramsés Mesas Gonzalez 02:24:58
198 88 Raimond Pardo Suárez 02:25:00
199 75 Ian Llorca Escobar 02:27:56
200 45 Jordi Bonet I Roca 02:32:11
201 13 Txell Badia Comas 02:32:13
202 372 Carla Boada Ubeda 02:32:22

Col·laboradors